sat.trackr.live / text

‹ back to catalog

STARLINK-5752

NORAD 55577 · 2023-020J

PAYLOAD ACTIVE UNKNOWN

§ Identity

Operator
Country
US
Launch date
2023-02-12
Launch site
AFETR
Launch vehicle
Mass (kg)
RCS (m²)

Purposes: comms

External: N2YO · Heavens-Above · Gunter

§ Orbital elements

Epoch: 2026-09-20T05:41:57.251616Z

Period
94.27 min
Inclination
43.0050°
Eccentricity
0.0001853
Mean motion
15.27573700 rev/d
Perigee alt
481.8 km
Apogee alt
484.3 km
Semi-major
6,861.2 km
B*
5.2759e-7
RAAN
346.6543°
Arg perigee
273.0782°
Mean anomaly
86.9858°
Rev number
19,866

§ Raw data

STARLINK-57521 55577U 23020J   26263.23746819 -.00000248  00000+0  52759-6 0  99932 55577  43.0050 346.6543 0001853 273.0782  86.9858 15.27573700198661

JSON: /api/v1/satellites/55577 · /tle

For live sub-satellite position, see the globe view (requires WebGL).

§ Visibility from observer

Set your observer location to see the next 7 days of passes ≥ 10°. The values pass through the URL so the page stays shareable.

No JS? Fill the form by hand. The geolocation button needs JavaScript.